Weather History for St. Johnsbury, VT

Change the Weather History Date:

Friday, October 5, 2012

  Actual Average Record
Temperature  
Mean Temperature 65 °F 52 °F  
Max Temperature 73 °F 62 °F 85 °F (1951)
Min Temperature 56 °F 41 °F 22 °F (1996)
Degree Days  
Heating Degree Days 0 14  
Month to date heating degree days 28 64  
Since 1 July heating degree days 310 298  
Cooling Degree Days 0 0  
Month to date cooling degree days 0 0  
Year to date cooling degree days 377 432  
Growing Degree Days 14 (Base 50)    
Moisture  
Dew Point 56 °F    
Average Humidity 77    
Maximum Humidity 100    
Minimum Humidity 53    
Precipitation  
Precipitation 0.00 in 0.13 in 0.64 in (1918)
Month to date precipitation 0.37 0.63  
Year to date precipitation 27.34 29.78  
Sea Level Pressure  
Sea Level Pressure 29.92 in    
Wind  
Wind Speed - (North)    
Max Wind Speed -    
Max Gust Speed -    
T = Trace of Precipitation, MM = Missing Value Source: NWS Daily Summary

Daily Weather History Graph

Daily Weather History Graph

Search for Another Location

Airport:

Trip Planner

Search our weather history database for the weather conditions in past years. The results will help you decide how hot, cold, wet, or windy it might be!

Date:

Astronomy

Oct. 05, 2012 Rise Set
Actual Time 6:51 AM EDT 6:20 PM EDT
Civil Twilight 6:22 AM EDT 6:49 PM EDT
Nautical Twilight 5:48 AM EDT 7:23 PM EDT
Astronomical Twilight 5:14 AM EDT 7:57 PM EDT
Moon 9:30 PM EDT (10/5) 12:07 PM EDT (10/5)
Length of Visible Light 12h 27m
Length of Day
11h 29m
Waning Gibbous, 74% of the Moon is Illuminated
Oct 5
Waning Gibbous
Oct 8
Last Quarter
Oct 15
New
Oct 21
First Quarter
Oct 29
Full

Hourly Weather History & Observations

Time (EDT) Temp. Dew Point Humidity Pressure Visibility Wind Dir Wind Speed Gust Speed Precip Events Conditions
12:54 AM 57.0 °F 57.0 °F 100% 29.99 in - North - - N/A   Unknown
1:54 AM 57.0 °F 57.0 °F 100% 29.98 in - North - - N/A   Unknown
2:54 AM 57.0 °F 57.0 °F 100% 29.97 in - North - - N/A   Unknown
3:54 AM 57.0 °F 57.0 °F 100% 29.96 in - North - - N/A   Unknown
4:54 AM 55.9 °F 55.9 °F 100% 29.97 in - North - - N/A   Unknown
5:54 AM 55.9 °F 55.9 °F 100% 29.99 in - North - - N/A   Unknown
6:54 AM 55.9 °F 55.0 °F 97% 29.98 in - North - - N/A   Unknown
7:54 AM 55.9 °F 55.0 °F 97% 29.98 in - North - - N/A   Unknown
8:54 AM 57.0 °F 55.0 °F 93% 29.99 in - North - - N/A   Unknown
9:54 AM 57.9 °F 55.9 °F 93% 29.98 in - North - - N/A   Unknown
10:54 AM 60.1 °F 55.9 °F 86% 29.97 in - North - - N/A   Unknown
11:54 AM 64.0 °F 57.0 °F 78% 29.95 in - North - - N/A   Unknown
12:54 PM 68.0 °F 55.9 °F 65% 29.93 in - North - - N/A   Unknown
1:54 PM 70.0 °F 55.0 °F 59% 29.88 in - North - - N/A   Unknown
2:54 PM 73.0 °F 55.9 °F 55% 29.86 in - North - - N/A   Unknown
3:54 PM 72.0 °F 55.9 °F 57% 29.85 in - North - - N/A   Unknown
4:54 PM 72.0 °F 55.0 °F 55% 29.85 in - North - - N/A   Unknown
5:54 PM 69.1 °F 57.9 °F 68% 29.85 in - North - - N/A   Unknown
6:54 PM 64.9 °F 57.9 °F 78% 29.86 in - North - - N/A   Unknown
7:54 PM 63.0 °F 59.0 °F 87% 29.86 in - North - - N/A   Unknown
8:54 PM 60.1 °F 57.0 °F 90% 29.85 in - North - - N/A   Unknown
9:54 PM 57.9 °F 55.9 °F 93% 29.86 in - North - - N/A   Unknown
10:54 PM 57.9 °F 55.9 °F 93% 29.85 in - North - - N/A   Unknown
11:54 PM 57.9 °F 55.0 °F 90% 29.83 in - North - - N/A   Unknown